K3XY-2 Weather Reports


Display with metric or nautical units.
time (UTC)temp
F
wind
direction
speed
MPH
gust
MPH
rain 1hr
in
rain 24hr
in
rain mn
in
humidity
%
barometer
mb
20260510230915 62 0 0.0 0.0 0.07 0.07 0.07 84 1013.9
20260510225915 63 0 0.0 0.0 0.07 0.07 0.07 82 1013.7
20260510224915 64 0 0.0 0.0 0.06 0.06 0.06 81 1013.9
20260510223916 65 0 0.0 0.0 0.04 0.04 0.04 78 1013.9
20260510222915 65 0 0.0 0.0 0.01 0.01 0.01 76 1013.8
20260510221915 66 0 0.0 0.0 0.00 0.00 0.00 73 1013.2
20260510220915 66 0 0.0 0.0 0.00 0.00 0.00 71 1013.1
20260510215916 67 0 0.0 0.0 0.00 0.00 0.00 70 1013.1
20260510214915 67 0 0.0 0.0 0.00 0.00 0.00 68 1013.1
20260510213915 68 0 0.0 0.0 0.00 0.00 0.00 68 1012.7
20260510212915 68 0 0.0 0.0 0.00 0.00 0.00 66 1012.4
20260510211915 69 0 0.0 0.0 0.00 0.00 0.00 65 1012.4
20260510210916 70 0 0.0 0.0 0.00 0.00 0.00 65 1012.5
20260510205915 71 0 0.0 0.0 0.00 0.00 0.00 64 1012.6
20260510204915 71 0 0.0 0.0 0.00 0.00 0.00 62 1012.1
20260510203915 72 0 0.0 0.0 0.00 0.00 0.00 61 1012.0
20260510202915 72 0 0.0 0.0 0.00 0.00 0.00 61 1011.9
20260510201915 73 0 0.0 0.0 0.00 0.00 0.00 59 1011.7
20260510200915 74 0 0.0 0.0 0.00 0.00 0.00 58 1011.9
20260510195915 74 0 0.0 0.0 0.00 0.00 0.00 58 1011.9
20260510194915 74 0 0.0 0.0 0.00 0.00 0.00 62 1011.9
20260510193915 73 0 0.0 0.0 0.00 0.00 0.00 60 1012.0
20260510192915 73 0 0.0 0.0 0.00 0.00 0.00 59 1012.0
20260510191915 74 0 0.0 0.0 0.00 0.00 0.00 60 1012.0
20260510190915 74 0 0.0 0.0 0.00 0.00 0.00 58 1012.1
20260510185915 74 0 0.0 0.0 0.00 0.01 0.00 60 1012.4
20260510184914 73 0 0.0 0.0 0.00 0.01 0.00 59 1012.5
20260510183915 74 0 0.0 0.0 0.00 0.03 0.00 60 1012.7
20260510182915 74 0 0.0 0.0 0.00 0.04 0.00 61 1012.4
20260510181915 74 0 0.0 0.0 0.00 0.04 0.00 57 1012.6
20260510180915 74 0 0.0 0.0 0.00 0.04 0.00 58 1012.7
20260510175915 75 0 0.0 0.0 0.00 0.04 0.00 62 1012.8
20260510174915 75 0 0.0 0.0 0.00 0.05 0.00 59 1012.7
20260510173914 75 0 0.0 0.0 0.00 0.05 0.00 59 1012.7
20260510172915 74 0 0.0 0.0 0.00 0.06 0.00 60 1012.7
20260510171915 73 0 0.0 0.0 0.00 0.06 0.00 63 1012.8
20260510170914 73 0 0.0 0.0 0.00 0.07 0.00 64 1012.8
20260510165915 74 0 0.0 0.0 0.00 0.08 0.00 62 1012.7
20260510164915 74 0 0.0 0.0 0.00 0.09 0.00 61 1012.7
20260510163914 74 0 0.0 0.0 0.00 0.09 0.00 61 1012.6
20260510162915 73 0 0.0 0.0 0.00 0.09 0.00 61 1012.6
20260510161915 74 0 0.0 0.0 0.00 0.09 0.00 59 1012.5
20260510160915 74 0 0.0 0.0 0.00 0.09 0.00 64 1012.5
20260510155915 73 0 0.0 0.0 0.00 0.09 0.00 61 1012.4
20260510154915 73 0 0.0 0.0 0.00 0.09 0.00 59 1012.4
20260510153915 73 0 0.0 0.0 0.00 0.09 0.00 62 1012.4
20260510152914 72 0 0.0 0.0 0.00 0.09 0.00 66 1012.5
20260510151915 71 0 0.0 0.0 0.00 0.09 0.00 70 1012.6
20260510150915 70 0 0.0 0.0 0.00 0.09 0.00 70 1012.6
20260510145914 69 0 0.0 0.0 0.00 0.09 0.00 80 1012.4
20260510142914 0 0.0 0.0 0.00 0.09 0.00 1012.9
20260510141915 0 0.0 0.0 0.00 0.09 0.00 1013.0
20260510140914 0 0.0 0.0 0.00 0.09 0.00 1013.1
20260510135914 0 0.0 0.0 0.00 0.09 0.00 1012.9
20260510134915 0 0.0 0.0 0.00 0.09 0.00 1012.9
20260510133914 0 0.0 0.0 0.00 0.09 0.00 1012.9
20260510132914 0 0.0 0.0 0.00 0.09 0.00 1012.8
20260510131915 0 0.0 0.0 0.00 0.09 0.00 1012.9
20260510130914 0 0.0 0.0 0.00 0.09 0.00 1012.9
20260510125914 0 0.0 0.0 0.00 0.09 0.00 1012.7
20260510124915 0 0.0 0.0 0.00 0.09 0.00 1012.8
20260510123914 0 0.0 0.0 0.00 0.09 0.00 1012.9
20260510122914 0 0.0 0.0 0.00 0.09 0.00 1012.8
20260510121915 0 0.0 0.0 0.00 0.09 0.00 1012.5
20260510120914 0 0.0 0.0 0.00 0.09 0.00 1012.4
20260510115914 0 0.0 0.0 0.00 0.09 0.00 1012.2
20260510114915 0 0.0 0.0 0.00 0.09 0.00 1012.0
20260510113914 0 0.0 0.0 0.00 0.09 0.00 1011.9
20260510112914 0 0.0 0.0 0.00 0.09 0.00 1011.8
20260510111915 0 0.0 0.0 0.00 0.09 0.00 1011.8
20260510110914 0 0.0 0.0 0.00 0.09 0.00 1011.8
20260510105915 0 0.0 0.0 0.00 0.09 0.00 1011.7
20260510104915 0 0.0 0.0 0.00 0.09 0.00 1011.7
20260510103914 0 0.0 0.0 0.00 0.09 0.00 1011.6
20260510101917 0 0.0 0.0 0.00 0.09 0.00 1011.4
20260510095914 0 0.0 0.0 0.00 0.09 0.00 1011.1
20260510094915 0 0.0 0.0 0.00 0.09 0.00 1010.9
20260510093914 0 0.0 0.0 0.00 0.09 0.00 1011.2
20260510092914 0 0.0 0.0 0.00 0.09 0.00 1010.9
20260510091914 0 0.0 0.0 0.00 0.09 0.00 1010.9
20260510090914 0 0.0 0.0 0.00 0.09 0.00 1010.9
20260510085914 0 0.0 0.0 0.00 0.09 0.00 1010.7
20260510084914 0 0.0 0.0 0.00 0.09 0.00 1010.9
20260510083914 0 0.0 0.0 0.00 0.09 0.00 1011.1
20260510082914 0 0.0 0.0 0.00 0.09 0.00 1011.0
20260510081914 0 0.0 0.0 0.00 0.09 0.00 1011.0
20260510080914 0 0.0 0.0 0.00 0.09 0.00 1011.1
20260510075914 0 0.0 0.0 0.00 0.09 0.00 1010.9
20260510074915 0 0.0 0.0 0.00 0.09 0.00 1010.9
20260510073914 0 0.0 0.0 0.00 0.09 0.00 1010.3
20260510072914 0 0.0 0.0 0.00 0.09 0.00 1010.3
20260510071915 46 0 0.0 0.0 0.00 0.09 0.00 1010.2
20260510070914 46 0 0.0 0.0 0.00 0.09 0.00 92 1010.6
20260510065914 46 0 0.0 0.0 0.00 0.09 0.00 92 1010.6
20260510064915 46 0 0.0 0.0 0.00 0.09 0.00 91 1010.6
20260510063914 46 0 0.0 0.0 0.00 0.09 0.00 91 1010.3
20260510062914 46 0 0.0 0.0 0.00 0.09 0.00 91 1010.3
20260510061914 46 0 0.0 0.0 0.00 0.09 0.00 91 1010.1
20260510060914 46 0 0.0 0.0 0.00 0.09 0.00 91 1009.9
20260510055914 46 0 0.0 0.0 0.00 0.09 0.00 91 1010.0
20260510054914 46 0 0.0 0.0 0.00 0.09 0.00 91 1010.3
20260510053915 46 0 0.0 0.0 0.00 0.09 0.00 91 1010.2
20260510052914 46 0 0.0 0.0 0.00 0.09 0.00 91 1010.4
20260510051914 47 0 0.0 0.0 0.00 0.09 0.00 91 1010.4
20260510050914 47 0 0.0 0.0 0.00 0.09 0.00 91 1010.4
20260510045914 47 0 0.0 0.0 0.00 0.09 0.09 91 1010.4
20260510044914 47 0 0.0 0.0 0.00 0.09 0.09 91 1010.5
20260510043914 47 0 0.0 0.0 0.00 0.09 0.09 91 1010.6
20260510042914 47 0 0.0 0.0 0.00 0.09 0.09 91 1010.6
20260510041914 48 0 0.0 0.0 0.00 0.09 0.09 90 1010.6
20260510040914 48 0 0.0 0.0 0.00 0.09 0.09 91 1010.6
20260510035914 48 0 0.0 0.0 0.00 0.09 0.09 90 1010.8
20260510034914 48 0 0.0 0.0 0.00 0.09 0.09 90 1010.9
20260510033914 48 0 0.0 0.0 0.00 0.09 0.09 90 1010.8
20260510032914 49 0 0.0 0.0 0.00 0.09 0.09 90 1010.6
20260510031914 49 0 0.0 0.0 0.00 0.09 0.09 90 1010.6
20260510030914 49 0 0.0 0.0 0.00 0.09 0.09 90 1010.5
20260510025914 50 0 0.0 0.0 0.00 0.09 0.09 90 1010.3
20260510024913 50 0 0.0 0.0 0.00 0.09 0.09 90 1010.3
20260510023914 50 0 0.0 0.0 0.00 0.09 0.09 90 1010.4
20260510022914 51 0 0.0 0.0 0.00 0.09 0.09 90 1010.4
20260510021914 51 0 0.0 0.0 0.00 0.09 0.09 90 1010.2
20260510020914 51 0 0.0 0.0 0.00 0.09 0.09 89 1010.2
20260510015914 52 0 0.0 0.0 0.00 0.09 0.09 90 1010.2
20260510014914 52 0 0.0 0.0 0.00 0.09 0.09 89 1010.0
20260510013913 52 0 0.0 0.0 0.00 0.09 0.09 89 1010.0
20260510012914 53 0 0.0 0.0 0.00 0.09 0.09 89 1010.0
20260510011914 53 0 0.0 0.0 0.00 0.09 0.09 89 1010.0
20260510010914 54 0 0.0 0.0 0.00 0.09 0.09 89 1009.8
20260510005913 54 0 0.0 0.0 0.00 0.09 0.09 90 1009.7
20260510004914 55 0 0.0 0.0 0.00 0.09 0.09 90 1009.6
20260510003914 55 0 0.0 0.0 0.00 0.09 0.09 90 1009.4
20260510002913 55 0 0.0 0.0 0.00 0.09 0.09 90 1009.4
20260510001914 56 0 0.0 0.0 0.00 0.09 0.09 90 1009.2
20260510000914 56 0 0.0 0.0 0.00 0.09 0.09 90 1009.3
20260509235914 56 0 0.0 0.0 0.00 0.09 0.09 90 1009.2
20260509234913 56 0 0.0 0.0 0.00 0.09 0.09 91 1009.2
20260509233914 57 0 0.0 0.0 0.00 0.09 0.09 91 1009.2
20260509232914 57 0 0.0 0.0 0.00 0.09 0.09 90 1009.2
20260509231913 57 0 0.0 0.0 0.00 0.09 0.09 90 1009.2